Zurück zum Katalog

THORAD AGENA D DEB

AktivLEO
NORAD 5183·DEBRIS·🇺🇸 United States

Gestartet Apr 8, 1970 von Vandenberg Space Force Base

Loading…

Nächste Überflüge (nächste 24 Stunden)

TLE

AktuellSource: Space-Track

Epoche: Sep 13, 2026, 15:43 UTC

1 05183U 70025JZ  26256.65502603  .00000308  00000-0  34673-3 0  9996
2 05183 100.0127 151.6688 0034502  54.3175 335.1780 13.79345365816855

Verfolge THORAD AGENA D DEB in Echtzeit mit AllMySat

Download on the App Store